Location: Eyeline Observatory
(43.2182°N, 78.8632°W)
Time: 19:48:07
(UTC-05:00)

OTV 5 (USA 277) - Visible Passes

Search period start: 22 February 2018 00:00
Search period end: 04 March 2018 00:00
Orbit: 404 x 417 km, 43.0° (Epoch: 07 September)

Date Brightness Start Highest point End Pass type
(mag) Time Alt. Az. Time Alt. Az. Time Alt. Az.
22 Feb ? 05:19:05 22° S 05:19:56 25° SSE 05:22:41 10° E visible
23 Feb ? 04:30:34 13° ESE 04:30:34 13° ESE 04:31:18 10° ESE visible
23 Feb ? 06:03:20 15° WSW 06:05:56 60° SSE 06:09:11 10° E visible
24 Feb ? 05:14:44 45° S 05:14:55 46° SSE 05:18:05 10° E visible
25 Feb ? 04:26:04 16° E 04:26:04 16° E 04:26:57 10° E visible
25 Feb ? 05:58:49 19° W 06:01:04 84° S 06:04:22 10° E visible
26 Feb ? 05:10:07 73° SSE 05:10:07 73° SSE 05:13:18 10° E visible
27 Feb ? 04:21:23 17° E 04:21:23 17° E 04:22:13 10° E visible
27 Feb ? 05:54:08 20° W 05:56:15 88° S 05:59:33 10° E visible
28 Feb ? 05:05:23 77° E 05:05:23 77° E 05:08:29 10° E visible
01 Mar ? 04:16:38 16° E 04:16:38 16° E 04:17:25 10° E visible
01 Mar ? 05:49:24 21° W 05:51:25 71° SSW 05:54:41 10° ESE visible
02 Mar ? 05:00:41 70° ESE 05:00:41 70° ESE 05:03:39 10° E visible
03 Mar ? 04:12:00 14° E 04:12:00 14° E 04:12:36 10° E visible
03 Mar ? 05:44:46 22° W 05:46:30 43° SSW 05:49:39 10° SE visible
